iso_date,epoch_date,Year,Hour,Min,DOY,POS_DOY,Lat,Lon,BP,Ts,Ta,has_bp,has_ts,has_ta,BuoyID,Buoy_Type,Buoy_Owner,Logistics,Hemisphere
2016-01-01T16:59:31Z,1451667571,2016,17,0,1.708,1.747,-50.51806,-20.99667,1004.3,9.41,-999.0,yes,yes,no,132728,BD2A3,AOML,AGULHAS,South
2016-01-01T18:00:00Z,1451671200,2016,18,0,1.75,1.747,-50.51806,-20.99667,1004.5,4.07,-999.0,yes,yes,no,132728,BD2A3,AOML,AGULHAS,South
2016-01-01T19:00:28Z,1451674829,2016,19,0,1.792,1.782,-50.52667,-20.96528,1004.9,4.07,-999.0,yes,yes,no,132728,BD2A3,AOML,AGULHAS,South
2016-01-01T19:59:31Z,1451678371,2016,20,0,1.833,1.833,-50.52917,-20.94833,1005.3,4.07,-999.0,yes,yes,no,132728,BD2A3,AOML,AGULHAS,South
2016-01-01T21:00:00Z,1451682000,2016,21,0,1.875,1.853,-50.52778,-20.93722,1005.7,4.07,-999.0,yes,yes,no,132728,BD2A3,AOML,AGULHAS,South
2016-01-01T22:00:28Z,1451685629,2016,22,0,1.917,1.923,-50.50722,-20.90139,1006.1,4.04,-999.0,yes,yes,no,132728,BD2A3,AOML,AGULHAS,South
2016-01-01T22:59:31Z,1451689171,2016,23,0,1.958,1.958,-50.5275,-20.89306,1006.6,4.04,-999.0,yes,yes,no,132728,BD2A3,AOML,AGULHAS,South
2016-01-02T00:00:00Z,1451692800,2016,0,0,2.0,1.958,-50.5275,-20.89306,1006.7,4.04,-999.0,yes,yes,no,132728,BD2A3,AOML,AGULHAS,South
2016-01-02T01:00:28Z,1451696429,2016,1,0,2.042,2.049,-50.52083,-20.86972,1007.0,4.04,-999.0,yes,yes,no,132728,BD2A3,AOML,AGULHAS,South
2016-01-02T01:59:31Z,1451699971,2016,2,0,2.083,2.06,-50.53528,-20.87,1007.2,4.04,-999.0,yes,yes,no,132728,BD2A3,AOML,AGULHAS,South
2016-01-02T03:00:00Z,1451703600,2016,3,0,2.125,2.123,-50.52444,-20.84833,1007.4,4.04,-999.0,yes,yes,no,132728,BD2A3,AOML,AGULHAS,South
2016-01-02T04:00:28Z,1451707229,2016,4,0,2.167,2.172,-50.52583,-20.85,1007.5,4.04,-999.0,yes,yes,no,132728,BD2A3,AOML,AGULHAS,South
2016-01-02T04:59:31Z,1451710771,2016,5,0,2.208,2.193,-50.52611,-20.84389,1007.5,4.04,-999.0,yes,yes,no,132728,BD2A3,AOML,AGULHAS,South
2016-01-02T06:00:00Z,1451714400,2016,6,0,2.25,2.239,-50.53194,-20.83917,1007.7,4.04,-999.0,yes,yes,no,132728,BD2A3,AOML,AGULHAS,South
2016-01-02T07:00:28Z,1451718029,2016,7,0,2.292,2.309,-50.54139,-20.81722,1008.1,4.07,-999.0,yes,yes,no,132728,BD2A3,AOML,AGULHAS,South
2016-01-02T07:59:31Z,1451721571,2016,8,0,2.333,2.331,-50.54861,-20.81556,1008.4,4.04,-999.0,yes,yes,no,132728,BD2A3,AOML,AGULHAS,South
2016-01-02T09:00:00Z,1451725200,2016,9,0,2.375,2.367,-50.54694,-20.79778,1008.9,4.07,-999.0,yes,yes,no,132728,BD2A3,AOML,AGULHAS,South
2016-01-02T10:00:28Z,1451728829,2016,10,0,2.417,2.401,-50.55028,-20.78694,1009.2,4.07,-999.0,yes,yes,no,132728,BD2A3,AOML,AGULHAS,South
2016-01-02T10:59:31Z,1451732371,2016,11,0,2.458,2.467,-50.55222,-20.77167,1008.9,4.07,-999.0,yes,yes,no,132728,BD2A3,AOML,AGULHAS,South
2016-01-02T12:00:00Z,1451736000,2016,12,0,2.5,2.467,-50.55222,-20.77167,1008.7,4.11,-999.0,yes,yes,no,132728,BD2A3,AOML,AGULHAS,South
2016-01-02T13:00:28Z,1451739629,2016,13,0,2.542,2.467,-50.55222,-20.77167,1008.6,4.07,-999.0,yes,yes,no,132728,BD2A3,AOML,AGULHAS,South
2016-01-02T13:59:31Z,1451743171,2016,14,0,2.583,2.631,-50.55139,-20.71583,1008.4,4.11,-999.0,yes,yes,no,132728,BD2A3,AOML,AGULHAS,South
2016-01-02T15:00:00Z,1451746800,2016,15,0,2.625,2.631,-50.55139,-20.71583,1008.1,4.11,-999.0,yes,yes,no,132728,BD2A3,AOML,AGULHAS,South
2016-01-02T16:00:28Z,1451750429,2016,16,0,2.667,2.699,-50.5525,-20.70222,1008.1,4.11,-999.0,yes,yes,no,132728,BD2A3,AOML,AGULHAS,South
2016-01-02T16:59:31Z,1451753971,2016,17,0,2.708,2.699,-50.5525,-20.70222,1007.7,4.11,-999.0,yes,yes,no,132728,BD2A3,AOML,AGULHAS,South
2016-01-02T18:00:00Z,1451757600,2016,18,0,2.75,2.745,-50.55222,-20.68972,1007.4,4.11,-999.0,yes,yes,no,132728,BD2A3,AOML,AGULHAS,South
2016-01-02T19:00:28Z,1451761229,2016,19,0,2.792,2.797,-50.54639,-20.68917,1007.0,4.11,-999.0,yes,yes,no,132728,BD2A3,AOML,AGULHAS,South
2016-01-02T19:59:31Z,1451764771,2016,20,0,2.833,2.846,-50.55444,-20.68361,1007.0,4.07,-999.0,yes,yes,no,132728,BD2A3,AOML,AGULHAS,South
2016-01-02T21:00:00Z,1451768400,2016,21,0,2.875,2.846,-50.55444,-20.68361,1007.2,4.07,-999.0,yes,yes,no,132728,BD2A3,AOML,AGULHAS,South
2016-01-02T22:00:28Z,1451772029,2016,22,0,2.917,2.913,-50.56472,-20.66944,1007.5,4.07,-999.0,yes,yes,no,132728,BD2A3,AOML,AGULHAS,South
2016-01-02T22:59:31Z,1451775571,2016,23,0,2.958,2.944,-50.56806,-20.65694,1007.8,4.07,-999.0,yes,yes,no,132728,BD2A3,AOML,AGULHAS,South
2016-01-03T00:00:00Z,1451779200,2016,0,0,3.0,2.977,-50.56972,-20.63944,1007.8,4.07,-999.0,yes,yes,no,132728,BD2A3,AOML,AGULHAS,South
2016-01-03T01:00:28Z,1451782829,2016,1,0,3.042,3.042,-50.56417,-20.63167,1007.8,4.07,-999.0,yes,yes,no,132728,BD2A3,AOML,AGULHAS,South
2016-01-03T01:59:31Z,1451786371,2016,2,0,3.083,3.116,-50.58028,-20.61861,1007.7,4.07,-999.0,yes,yes,no,132728,BD2A3,AOML,AGULHAS,South
2016-01-03T03:00:00Z,1451790000,2016,3,0,3.125,3.116,-50.58028,-20.61861,1007.7,4.07,-999.0,yes,yes,no,132728,BD2A3,AOML,AGULHAS,South
2016-01-03T04:00:28Z,1451793629,2016,4,0,3.167,3.183,-50.58306,-20.59694,1007.6,4.07,-999.0,yes,yes,no,132728,BD2A3,AOML,AGULHAS,South
2016-01-03T04:59:31Z,1451797171,2016,5,0,3.208,3.222,-50.58556,-20.5875,1008.0,4.07,-999.0,yes,yes,no,132728,BD2A3,AOML,AGULHAS,South
2016-01-03T06:00:00Z,1451800800,2016,6,0,3.25,3.256,-50.58222,-20.58528,1008.5,4.07,-999.0,yes,yes,no,132728,BD2A3,AOML,AGULHAS,South
2016-01-03T07:00:28Z,1451804429,2016,7,0,3.292,3.291,-50.58389,-20.57639,1009.1,4.04,-999.0,yes,yes,no,132728,BD2A3,AOML,AGULHAS,South
2016-01-03T07:59:31Z,1451807971,2016,8,0,3.333,3.328,-50.58833,-20.5725,1009.9,4.07,-999.0,yes,yes,no,132728,BD2A3,AOML,AGULHAS,South
2016-01-03T09:00:00Z,1451811600,2016,9,0,3.375,3.369,-50.58583,-20.57944,1010.4,4.07,-999.0,yes,yes,no,132728,BD2A3,AOML,AGULHAS,South
2016-01-03T10:00:28Z,1451815229,2016,10,0,3.417,3.424,-50.58444,-20.55389,1011.1,4.07,-999.0,yes,yes,no,132728,BD2A3,AOML,AGULHAS,South
2016-01-03T10:59:31Z,1451818771,2016,11,0,3.458,3.455,-50.58278,-20.56917,1011.4,4.11,-999.0,yes,yes,no,132728,BD2A3,AOML,AGULHAS,South
2016-01-03T12:00:00Z,1451822400,2016,12,0,3.5,3.494,-50.59028,-20.56389,1011.8,4.11,-999.0,yes,yes,no,132728,BD2A3,AOML,AGULHAS,South
2016-01-03T13:00:28Z,1451826029,2016,13,0,3.542,3.494,-50.59028,-20.56389,1012.1,4.14,-999.0,yes,yes,no,132728,BD2A3,AOML,AGULHAS,South
2016-01-03T13:59:31Z,1451829571,2016,14,0,3.583,3.624,-50.60444,-20.55778,1012.4,4.18,-999.0,yes,yes,no,132728,BD2A3,AOML,AGULHAS,South
2016-01-03T15:00:00Z,1451833200,2016,15,0,3.625,3.624,-50.60444,-20.55778,1012.9,4.18,-999.0,yes,yes,no,132728,BD2A3,AOML,AGULHAS,South
2016-01-03T16:00:28Z,1451836829,2016,16,0,3.667,3.708,-50.61556,-20.5225,1013.4,4.18,-999.0,yes,yes,no,132728,BD2A3,AOML,AGULHAS,South
2016-01-03T16:59:31Z,1451840371,2016,17,0,3.708,3.708,-50.61556,-20.5225,1013.9,4.21,-999.0,yes,yes,no,132728,BD2A3,AOML,AGULHAS,South
2016-01-03T18:00:00Z,1451844000,2016,18,0,3.75,3.764,-50.62,-20.51694,1014.4,4.25,-999.0,yes,yes,no,132728,BD2A3,AOML,AGULHAS,South
2016-01-03T19:00:28Z,1451847629,2016,19,0,3.792,3.798,-50.61083,-20.51194,1015.0,4.21,-999.0,yes,yes,no,132728,BD2A3,AOML,AGULHAS,South
2016-01-03T19:59:31Z,1451851171,2016,20,0,3.833,3.838,-50.61583,-20.49278,1015.6,4.18,-999.0,yes,yes,no,132728,BD2A3,AOML,AGULHAS,South
2016-01-03T21:00:00Z,1451854800,2016,21,0,3.875,3.867,-50.61472,-20.49389,1016.3,4.18,-999.0,yes,yes,no,132728,BD2A3,AOML,AGULHAS,South
2016-01-03T22:00:28Z,1451858429,2016,22,0,3.917,3.908,-50.61361,-20.48472,1016.9,4.14,-999.0,yes,yes,no,132728,BD2A3,AOML,AGULHAS,South
2016-01-03T22:59:31Z,1451861971,2016,23,0,3.958,3.965,-50.61306,-20.48306,1017.3,4.14,-999.0,yes,yes,no,132728,BD2A3,AOML,AGULHAS,South
2016-01-04T00:00:00Z,1451865600,2016,0,0,4.0,3.999,-50.61361,-20.48778,1017.5,4.14,-999.0,yes,yes,no,132728,BD2A3,AOML,AGULHAS,South
2016-01-04T01:00:28Z,1451869229,2016,1,0,4.042,4.033,-50.60333,-20.48306,1017.9,4.14,-999.0,yes,yes,no,132728,BD2A3,AOML,AGULHAS,South
2016-01-04T01:59:31Z,1451872771,2016,2,0,4.083,4.103,-50.63444,-20.49361,1018.0,4.14,-999.0,yes,yes,no,132728,BD2A3,AOML,AGULHAS,South
2016-01-04T03:00:00Z,1451876400,2016,3,0,4.125,4.108,-50.62528,-20.49667,1018.4,4.14,-999.0,yes,yes,no,132728,BD2A3,AOML,AGULHAS,South
2016-01-04T04:00:28Z,1451880029,2016,4,0,4.167,4.177,-50.64278,-20.49194,1018.5,4.14,-999.0,yes,yes,no,132728,BD2A3,AOML,AGULHAS,South
2016-01-04T04:59:31Z,1451883571,2016,5,0,4.208,4.201,-50.64278,-20.48194,1018.8,4.14,-999.0,yes,yes,no,132728,BD2A3,AOML,AGULHAS,South
2016-01-04T06:00:00Z,1451887200,2016,6,0,4.25,4.244,-50.64722,-20.47694,1019.2,4.14,-999.0,yes,yes,no,132728,BD2A3,AOML,AGULHAS,South
2016-01-04T07:00:28Z,1451890829,2016,7,0,4.292,4.279,-50.64889,-20.43611,1019.5,4.14,-999.0,yes,yes,no,132728,BD2A3,AOML,AGULHAS,South
2016-01-04T07:59:31Z,1451894371,2016,8,0,4.333,4.34,-50.65583,-20.43083,1019.6,4.14,-999.0,yes,yes,no,132728,BD2A3,AOML,AGULHAS,South
2016-01-04T09:00:00Z,1451898000,2016,9,0,4.375,4.372,-50.65861,-20.42472,1020.0,4.14,-999.0,yes,yes,no,132728,BD2A3,AOML,AGULHAS,South
2016-01-04T10:00:28Z,1451901629,2016,10,0,4.417,4.417,-50.65833,-20.43111,1020.2,4.18,-999.0,yes,yes,no,132728,BD2A3,AOML,AGULHAS,South
2016-01-04T10:59:31Z,1451905171,2016,11,0,4.458,4.442,-50.65472,-20.41722,1020.0,4.18,-999.0,yes,yes,no,132728,BD2A3,AOML,AGULHAS,South
2016-01-04T12:00:00Z,1451908800,2016,12,0,4.5,4.478,-50.65528,-20.40806,1020.2,4.18,-999.0,yes,yes,no,132728,BD2A3,AOML,AGULHAS,South
2016-01-04T13:00:28Z,1451912429,2016,13,0,4.542,4.478,-50.65528,-20.40806,1020.5,4.21,-999.0,yes,yes,no,132728,BD2A3,AOML,AGULHAS,South
2016-01-04T13:59:31Z,1451915971,2016,14,0,4.583,4.617,-50.665,-20.40639,1020.6,4.25,-999.0,yes,yes,no,132728,BD2A3,AOML,AGULHAS,South
2016-01-04T15:00:00Z,1451919600,2016,15,0,4.625,4.617,-50.665,-20.40639,1020.7,4.25,-999.0,yes,yes,no,132728,BD2A3,AOML,AGULHAS,South
2016-01-04T16:00:28Z,1451923229,2016,16,0,4.667,4.617,-50.665,-20.40639,1020.7,4.28,-999.0,yes,yes,no,132728,BD2A3,AOML,AGULHAS,South
2016-01-04T16:59:31Z,1451926771,2016,17,0,4.708,4.756,-50.68361,-20.39083,1020.6,4.28,-999.0,yes,yes,no,132728,BD2A3,AOML,AGULHAS,South
2016-01-04T18:00:00Z,1451930400,2016,18,0,4.75,4.756,-50.68306,-20.39139,1020.9,4.28,-999.0,yes,yes,no,132728,BD2A3,AOML,AGULHAS,South
2016-01-04T21:00:00Z,1451941200,2016,21,0,4.875,4.85,-50.69472,-20.3675,1020.2,4.28,-999.0,yes,yes,no,132728,BD2A3,AOML,AGULHAS,South
2016-01-04T22:00:28Z,1451944829,2016,22,0,4.917,4.917,-50.70306,-20.35722,1019.7,4.25,-999.0,yes,yes,no,132728,BD2A3,AOML,AGULHAS,South
2016-01-04T22:59:31Z,1451948371,2016,23,0,4.958,4.947,-50.70583,-20.34417,1019.5,4.28,-999.0,yes,yes,no,132728,BD2A3,AOML,AGULHAS,South
2016-01-05T00:00:00Z,1451952000,2016,0,0,5.0,4.985,-50.70333,-20.3375,1018.7,4.28,-999.0,yes,yes,no,132728,BD2A3,AOML,AGULHAS,South
2016-01-05T01:00:28Z,1451955629,2016,1,0,5.042,5.026,-50.71222,-20.34722,1018.0,4.28,-999.0,yes,yes,no,132728,BD2A3,AOML,AGULHAS,South
2016-01-05T01:59:31Z,1451959171,2016,2,0,5.083,5.099,-50.71528,-20.34278,1016.9,4.28,-999.0,yes,yes,no,132728,BD2A3,AOML,AGULHAS,South
2016-01-05T03:00:00Z,1451962800,2016,3,0,5.125,5.099,-50.71528,-20.34278,1016.0,4.28,-999.0,yes,yes,no,132728,BD2A3,AOML,AGULHAS,South
2016-01-05T04:00:28Z,1451966429,2016,4,0,5.167,5.168,-50.72278,-20.33278,1014.7,4.28,-999.0,yes,yes,no,132728,BD2A3,AOML,AGULHAS,South
2016-01-05T04:59:31Z,1451969971,2016,5,0,5.208,5.188,-50.72444,-20.3325,1013.3,4.28,-999.0,yes,yes,no,132728,BD2A3,AOML,AGULHAS,South
2016-01-05T06:00:00Z,1451973600,2016,6,0,5.25,5.26,-50.73944,-20.30917,1012.4,4.28,-999.0,yes,yes,no,132728,BD2A3,AOML,AGULHAS,South
2016-01-05T07:00:28Z,1451977229,2016,7,0,5.292,5.312,-50.75361,-20.30333,1011.7,4.31,-999.0,yes,yes,no,132728,BD2A3,AOML,AGULHAS,South
2016-01-05T07:59:31Z,1451980771,2016,8,0,5.333,5.327,-50.75611,-20.29583,1011.0,4.28,-999.0,yes,yes,no,132728,BD2A3,AOML,AGULHAS,South
2016-01-05T09:00:00Z,1451984400,2016,9,0,5.375,5.358,-50.76639,-20.28667,1010.3,4.28,-999.0,yes,yes,no,132728,BD2A3,AOML,AGULHAS,South
2016-01-05T10:00:28Z,1451988029,2016,10,0,5.417,5.425,-50.76444,-20.28472,1009.4,4.28,-999.0,yes,yes,no,132728,BD2A3,AOML,AGULHAS,South
2016-01-05T10:59:31Z,1451991571,2016,11,0,5.458,5.465,-50.77083,-20.2675,1008.4,4.31,-999.0,yes,yes,no,132728,BD2A3,AOML,AGULHAS,South
2016-01-05T12:00:00Z,1451995200,2016,12,0,5.5,5.497,-50.77528,-20.27222,1007.8,4.31,-999.0,yes,yes,no,132728,BD2A3,AOML,AGULHAS,South
2016-01-05T13:00:28Z,1451998829,2016,13,0,5.542,5.497,-50.77528,-20.27222,1007.0,4.31,-999.0,yes,yes,no,132728,BD2A3,AOML,AGULHAS,South
2016-01-05T13:59:31Z,1452002371,2016,14,0,5.583,5.608,-50.78472,-20.25028,1005.6,4.31,-999.0,yes,yes,no,132728,BD2A3,AOML,AGULHAS,South
2016-01-05T15:00:00Z,1452006000,2016,15,0,5.625,5.608,-50.78472,-20.25028,1004.1,4.31,-999.0,yes,yes,no,132728,BD2A3,AOML,AGULHAS,South
2016-01-05T16:00:28Z,1452009629,2016,16,0,5.667,5.675,-50.78639,-20.24389,1002.8,4.31,-999.0,yes,yes,no,132728,BD2A3,AOML,AGULHAS,South
2016-01-05T16:59:31Z,1452013171,2016,17,0,5.708,5.728,-50.79167,-20.23111,1001.8,4.31,-999.0,yes,yes,no,132728,BD2A3,AOML,AGULHAS,South
2016-01-05T18:00:00Z,1452016800,2016,18,0,5.75,5.751,-50.79556,-20.23278,1001.0,4.28,-999.0,yes,yes,no,132728,BD2A3,AOML,AGULHAS,South
2016-01-05T19:00:28Z,1452020429,2016,19,0,5.792,5.801,-50.80056,-20.22778,1000.7,4.28,-999.0,yes,yes,no,132728,BD2A3,AOML,AGULHAS,South
2016-01-05T19:59:31Z,1452023971,2016,20,0,5.833,5.833,-50.805,-20.21556,1000.9,4.28,-999.0,yes,yes,no,132728,BD2A3,AOML,AGULHAS,South
2016-01-05T21:00:00Z,1452027600,2016,21,0,5.875,5.87,-50.81778,-20.24389,1001.7,4.28,-999.0,yes,yes,no,132728,BD2A3,AOML,AGULHAS,South
2016-01-05T22:00:28Z,1452031229,2016,22,0,5.917,5.902,-50.81139,-20.20861,1003.0,4.25,-999.0,yes,yes,no,132728,BD2A3,AOML,AGULHAS,South
2016-01-05T22:59:31Z,1452034771,2016,23,0,5.958,5.974,-50.81306,-20.20806,1004.1,4.25,-999.0,yes,yes,no,132728,BD2A3,AOML,AGULHAS,South
2016-01-06T00:00:00Z,1452038400,2016,0,0,6.0,6.019,-50.82194,-20.23778,1005.2,4.21,-999.0,yes,yes,no,132728,BD2A3,AOML,AGULHAS,South
2016-01-06T01:00:28Z,1452042029,2016,1,0,6.042,6.019,-50.82194,-20.23778,1006.3,4.21,-999.0,yes,yes,no,132728,BD2A3,AOML,AGULHAS,South
2016-01-06T01:59:31Z,1452045571,2016,2,0,6.083,6.092,-50.81639,-20.21778,1007.2,4.21,-999.0,yes,yes,no,132728,BD2A3,AOML,AGULHAS,South
2016-01-06T03:00:00Z,1452049200,2016,3,0,6.125,6.092,-50.81639,-20.21778,1007.6,4.21,-999.0,yes,yes,no,132728,BD2A3,AOML,AGULHAS,South
2016-01-06T04:00:28Z,1452052829,2016,4,0,6.167,6.162,-50.82222,-20.22167,1008.1,4.25,-999.0,yes,yes,no,132728,BD2A3,AOML,AGULHAS,South
2016-01-06T04:59:31Z,1452056371,2016,5,0,6.208,6.228,-50.82861,-20.23583,1008.9,4.25,-999.0,yes,yes,no,132728,BD2A3,AOML,AGULHAS,South
2016-01-06T06:00:00Z,1452060000,2016,6,0,6.25,6.239,-50.83111,-20.23639,1009.3,4.21,-999.0,yes,yes,no,132728,BD2A3,AOML,AGULHAS,South
2016-01-06T07:00:28Z,1452063629,2016,7,0,6.292,6.304,-50.8475,-20.23278,1009.9,4.25,-999.0,yes,yes,no,132728,BD2A3,AOML,AGULHAS,South
2016-01-06T07:59:31Z,1452067171,2016,8,0,6.333,6.342,-50.85528,-20.22389,1010.1,4.25,-999.0,yes,yes,no,132728,BD2A3,AOML,AGULHAS,South
2016-01-06T09:00:00Z,1452070800,2016,9,0,6.375,6.374,-50.86361,-20.23694,1010.3,4.25,-999.0,yes,yes,no,132728,BD2A3,AOML,AGULHAS,South
2016-01-06T10:00:28Z,1452074429,2016,10,0,6.417,6.412,-50.86278,-20.22889,1010.2,4.28,-999.0,yes,yes,no,132728,BD2A3,AOML,AGULHAS,South
2016-01-06T10:59:31Z,1452077971,2016,11,0,6.458,6.451,-50.87139,-20.22694,1009.2,4.28,-999.0,yes,yes,no,132728,BD2A3,AOML,AGULHAS,South
2016-01-06T12:00:00Z,1452081600,2016,12,0,6.5,6.483,-50.87194,-20.22833,1008.8,4.28,-999.0,yes,yes,no,132728,BD2A3,AOML,AGULHAS,South
2016-01-06T13:00:28Z,1452085229,2016,13,0,6.542,6.483,-50.87194,-20.22833,1008.0,4.35,-999.0,yes,yes,no,132728,BD2A3,AOML,AGULHAS,South
2016-01-06T13:59:31Z,1452088771,2016,14,0,6.583,6.599,-50.88944,-20.22389,1007.1,4.35,-999.0,yes,yes,no,132728,BD2A3,AOML,AGULHAS,South
2016-01-06T15:00:00Z,1452092400,2016,15,0,6.625,6.599,-50.88944,-20.22389,1006.0,4.35,-999.0,yes,yes,no,132728,BD2A3,AOML,AGULHAS,South
2016-01-06T16:00:28Z,1452096029,2016,16,0,6.667,6.67,-50.90111,-20.20806,1004.9,4.35,-999.0,yes,yes,no,132728,BD2A3,AOML,AGULHAS,South
2016-01-06T16:59:31Z,1452099571,2016,17,0,6.708,6.71,-50.90333,-20.20222,1003.1,4.35,-999.0,yes,yes,no,132728,BD2A3,AOML,AGULHAS,South
2016-01-06T18:00:00Z,1452103200,2016,18,0,6.75,6.745,-50.90917,-20.21306,1001.5,4.35,-999.0,yes,yes,no,132728,BD2A3,AOML,AGULHAS,South
2016-01-06T19:00:28Z,1452106829,2016,19,0,6.792,6.813,-50.91944,-20.21528,1000.0,4.35,-999.0,yes,yes,no,132728,BD2A3,AOML,AGULHAS,South
2016-01-06T19:59:31Z,1452110371,2016,20,0,6.833,6.849,-50.92472,-20.23444,998.4,4.35,-999.0,yes,yes,no,132728,BD2A3,AOML,AGULHAS,South
2016-01-06T21:00:00Z,1452114000,2016,21,0,6.875,6.885,-50.92944,-20.23333,996.4,4.35,-999.0,yes,yes,no,132728,BD2A3,AOML,AGULHAS,South
2016-01-06T22:00:28Z,1452117629,2016,22,0,6.917,6.922,-50.94111,-20.21778,995.1,4.35,-999.0,yes,yes,no,132728,BD2A3,AOML,AGULHAS,South
2016-01-06T22:59:31Z,1452121171,2016,23,0,6.958,6.956,-50.94944,-20.22583,993.4,4.38,-999.0,yes,yes,no,132728,BD2A3,AOML,AGULHAS,South
2016-01-07T00:00:00Z,1452124800,2016,0,0,7.0,6.987,-50.96,-20.24472,991.7,4.38,-999.0,yes,yes,no,132728,BD2A3,AOML,AGULHAS,South
2016-01-07T01:00:28Z,1452128429,2016,1,0,7.042,7.027,-50.97083,-20.22889,990.5,4.38,-999.0,yes,yes,no,132728,BD2A3,AOML,AGULHAS,South
2016-01-07T01:59:31Z,1452131971,2016,2,0,7.083,7.084,-50.97778,-20.23083,989.2,4.42,-999.0,yes,yes,no,132728,BD2A3,AOML,AGULHAS,South
2016-01-07T03:00:00Z,1452135600,2016,3,0,7.125,7.154,-50.99139,-20.2125,989.2,4.42,-999.0,yes,yes,no,132728,BD2A3,AOML,AGULHAS,South
2016-01-07T04:00:28Z,1452139229,2016,4,0,7.167,7.154,-50.99111,-20.22083,989.8,4.42,-999.0,yes,yes,no,132728,BD2A3,AOML,AGULHAS,South
2016-01-07T04:59:31Z,1452142771,2016,5,0,7.208,7.221,-51.00222,-20.21611,990.9,4.42,-999.0,yes,yes,no,132728,BD2A3,AOML,AGULHAS,South
2016-01-07T06:00:00Z,1452146400,2016,6,0,7.25,7.222,-50.99833,-20.21222,992.2,4.45,-999.0,yes,yes,no,132728,BD2A3,AOML,AGULHAS,South
2016-01-07T07:00:28Z,1452150029,2016,7,0,7.292,7.291,-51.00583,-20.20167,993.7,4.45,-999.0,yes,yes,no,132728,BD2A3,AOML,AGULHAS,South
2016-01-07T07:59:31Z,1452153571,2016,8,0,7.333,7.33,-51.01083,-20.19417,994.7,4.48,-999.0,yes,yes,no,132728,BD2A3,AOML,AGULHAS,South
2016-01-07T09:00:00Z,1452157200,2016,9,0,7.375,7.365,-51.00861,-20.20222,995.6,4.48,-999.0,yes,yes,no,132728,BD2A3,AOML,AGULHAS,South
2016-01-07T10:00:28Z,1452160829,2016,10,0,7.417,7.421,-51.00583,-20.22389,996.6,4.48,-999.0,yes,yes,no,132728,BD2A3,AOML,AGULHAS,South
2016-01-07T10:59:31Z,1452164371,2016,11,0,7.458,7.466,-51.00139,-20.21667,997.3,4.48,-999.0,yes,yes,no,132728,BD2A3,AOML,AGULHAS,South
2016-01-07T12:00:00Z,1452168000,2016,12,0,7.5,7.466,-51.00139,-20.21667,998.5,4.48,-999.0,yes,yes,no,132728,BD2A3,AOML,AGULHAS,South
2016-01-07T13:00:28Z,1452171629,2016,13,0,7.542,7.466,-51.00139,-20.21667,999.4,4.48,-999.0,yes,yes,no,132728,BD2A3,AOML,AGULHAS,South
2016-01-07T13:59:31Z,1452175171,2016,14,0,7.583,7.663,-51.03722,-20.23333,999.8,4.48,-999.0,yes,yes,no,132728,BD2A3,AOML,AGULHAS,South
2016-01-07T15:00:00Z,1452178800,2016,15,0,7.625,7.663,-51.03722,-20.23333,1000.3,4.52,-999.0,yes,yes,no,132728,BD2A3,AOML,AGULHAS,South
2016-01-07T16:00:28Z,1452182429,2016,16,0,7.667,7.663,-51.03722,-20.23333,1000.6,4.52,-999.0,yes,yes,no,132728,BD2A3,AOML,AGULHAS,South
2016-01-07T16:59:31Z,1452185971,2016,17,0,7.708,7.732,-51.04917,-20.23556,1000.6,4.55,-999.0,yes,yes,no,132728,BD2A3,AOML,AGULHAS,South
2016-01-07T18:00:00Z,1452189600,2016,18,0,7.75,7.735,-51.05306,-20.22722,1000.3,4.55,-999.0,yes,yes,no,132728,BD2A3,AOML,AGULHAS,South
2016-01-07T19:00:28Z,1452193229,2016,19,0,7.792,7.8,-51.05944,-20.23583,1000.4,4.52,-999.0,yes,yes,no,132728,BD2A3,AOML,AGULHAS,South
2016-01-07T19:59:31Z,1452196771,2016,20,0,7.833,7.804,-51.06056,-20.22278,1000.3,4.52,-999.0,yes,yes,no,132728,BD2A3,AOML,AGULHAS,South
2016-01-07T21:00:00Z,1452200400,2016,21,0,7.875,7.875,-51.06667,-20.22556,999.5,4.52,-999.0,yes,yes,no,132728,BD2A3,AOML,AGULHAS,South
2016-01-07T22:00:28Z,1452204029,2016,22,0,7.917,7.905,-51.07833,-20.21056,998.5,4.52,-999.0,yes,yes,no,132728,BD2A3,AOML,AGULHAS,South
2016-01-07T22:59:31Z,1452207571,2016,23,0,7.958,7.947,-51.07667,-20.23167,997.6,4.52,-999.0,yes,yes,no,132728,BD2A3,AOML,AGULHAS,South
2016-01-08T00:00:00Z,1452211200,2016,0,0,8.0,8.01,-51.08722,-20.23111,996.8,4.52,-999.0,yes,yes,no,132728,BD2A3,AOML,AGULHAS,South
2016-01-08T01:00:28Z,1452214829,2016,1,0,8.042,8.047,-51.10167,-20.25,996.1,4.52,-999.0,yes,yes,no,132728,BD2A3,AOML,AGULHAS,South
2016-01-08T01:59:31Z,1452218371,2016,2,0,8.083,8.072,-51.09861,-20.24278,995.6,4.52,-999.0,yes,yes,no,132728,BD2A3,AOML,AGULHAS,South
2016-01-08T03:00:00Z,1452222000,2016,3,0,8.125,8.147,-51.11472,-20.24417,995.9,4.48,-999.0,yes,yes,no,132728,BD2A3,AOML,AGULHAS,South
2016-01-08T04:00:28Z,1452225629,2016,4,0,8.167,8.147,-51.11472,-20.24417,996.4,4.48,-999.0,yes,yes,no,132728,BD2A3,AOML,AGULHAS,South
2016-01-08T04:59:31Z,1452229171,2016,5,0,8.208,8.206,-51.12278,-20.2425,996.9,4.45,-999.0,yes,yes,no,132728,BD2A3,AOML,AGULHAS,South
2016-01-08T06:00:00Z,1452232800,2016,6,0,8.25,8.275,-51.13139,-20.22806,997.8,4.45,-999.0,yes,yes,no,132728,BD2A3,AOML,AGULHAS,South
2016-01-08T07:00:28Z,1452236429,2016,7,0,8.292,8.287,-51.13556,-20.23389,998.6,4.45,-999.0,yes,yes,no,132728,BD2A3,AOML,AGULHAS,South
2016-01-08T07:59:31Z,1452239971,2016,8,0,8.333,8.344,-51.13,-20.2425,999.6,4.45,-999.0,yes,yes,no,132728,BD2A3,AOML,AGULHAS,South
2016-01-08T09:00:00Z,1452243600,2016,9,0,8.375,8.383,-51.13611,-20.22389,1000.0,4.45,-999.0,yes,yes,no,132728,BD2A3,AOML,AGULHAS,South
2016-01-08T10:00:28Z,1452247229,2016,10,0,8.417,8.383,-51.13611,-20.22389,1000.2,4.45,-999.0,yes,yes,no,132728,BD2A3,AOML,AGULHAS,South
2016-01-08T10:59:31Z,1452250771,2016,11,0,8.458,8.492,-51.14472,-20.23917,1000.6,4.48,-999.0,yes,yes,no,132728,BD2A3,AOML,AGULHAS,South
2016-01-08T12:00:00Z,1452254400,2016,12,0,8.5,8.492,-51.14472,-20.23917,1001.1,4.48,-999.0,yes,yes,no,132728,BD2A3,AOML,AGULHAS,South
2016-01-08T13:00:28Z,1452258029,2016,13,0,8.542,8.492,-51.14472,-20.23917,1001.4,4.52,-999.0,yes,yes,no,132728,BD2A3,AOML,AGULHAS,South
2016-01-08T13:59:31Z,1452261571,2016,14,0,8.583,8.655,-51.17694,-20.26611,1001.5,4.55,-999.0,yes,yes,no,132728,BD2A3,AOML,AGULHAS,South
2016-01-08T15:00:00Z,1452265200,2016,15,0,8.625,8.655,-51.17694,-20.26611,1002.2,4.55,-999.0,yes,yes,no,132728,BD2A3,AOML,AGULHAS,South
2016-01-08T16:00:28Z,1452268829,2016,16,0,8.667,8.655,-51.17694,-20.26611,1002.0,4.55,-999.0,yes,yes,no,132728,BD2A3,AOML,AGULHAS,South
2016-01-08T16:59:31Z,1452272371,2016,17,0,8.708,8.723,-51.19306,-20.25917,1002.2,4.59,-999.0,yes,yes,no,132728,BD2A3,AOML,AGULHAS,South
2016-01-08T18:00:00Z,1452276000,2016,18,0,8.75,8.732,-51.19861,-20.25056,1001.9,4.59,-999.0,yes,yes,no,132728,BD2A3,AOML,AGULHAS,South
2016-01-08T19:00:28Z,1452279629,2016,19,0,8.792,8.794,-51.20611,-20.25778,1002.1,4.59,-999.0,yes,yes,no,132728,BD2A3,AOML,AGULHAS,South
2016-01-08T19:59:31Z,1452283171,2016,20,0,8.833,8.849,-51.20639,-20.24583,1002.1,4.59,-999.0,yes,yes,no,132728,BD2A3,AOML,AGULHAS,South
2016-01-08T21:00:00Z,1452286800,2016,21,0,8.875,8.869,-51.21056,-20.24639,1001.7,4.59,-999.0,yes,yes,no,132728,BD2A3,AOML,AGULHAS,South
2016-01-08T22:00:28Z,1452290429,2016,22,0,8.917,8.918,-51.21111,-20.25278,1001.3,4.55,-999.0,yes,yes,no,132728,BD2A3,AOML,AGULHAS,South
2016-01-08T22:59:31Z,1452293971,2016,23,0,8.958,8.963,-51.21444,-20.24444,1000.7,4.55,-999.0,yes,yes,no,132728,BD2A3,AOML,AGULHAS,South
2016-01-09T00:00:00Z,1452297600,2016,0,0,9.0,8.996,-51.22417,-20.24361,999.8,4.55,-999.0,yes,yes,no,132728,BD2A3,AOML,AGULHAS,South
2016-01-09T01:00:28Z,1452301229,2016,1,0,9.042,9.03,-51.23,-20.27,999.5,4.55,-999.0,yes,yes,no,132728,BD2A3,AOML,AGULHAS,South
2016-01-09T01:59:31Z,1452304771,2016,2,0,9.083,9.063,-51.22444,-20.27028,999.2,4.55,-999.0,yes,yes,no,132728,BD2A3,AOML,AGULHAS,South
2016-01-09T03:00:00Z,1452308400,2016,3,0,9.125,9.139,-51.24583,-20.26556,997.4,4.55,-999.0,yes,yes,no,132728,BD2A3,AOML,AGULHAS,South